Back to catalog

QIANFAN-107

AliveCommunicationsPO
NORAD 66049·PAYLOAD·🇨🇳 China

Launched Oct 17, 2025 from Taiyuan Satellite Launch Center

Loading…

Next Passes (next 24 hours)

TLE

FreshSource: Space-Track

Epoch: Sep 14, 2026, 19:32 UTC

1 66049U 25233S   26257.81442377  .00000077  00000-0  10067-3 0  9999
2 66049  89.0056  34.1313 0001893  93.9578 266.1790 13.51028787 45295

Track QIANFAN-107 in real time with AllMySat

Download on the App Store